This demonstration page uses our WeatherBlox Daily Observations layout. Learn more.

Left ArrowRight Arrow

Hourly Observations for February 1, 2015

Temp ( °F °C ) Dew Point ( °F °C ) Humidity (%) Winds ( mph kmh ) Pressure ( in mb ) Visibility ( mi km ) Precip ( " mm )
12:53 am 00:53 Cloudy with Mist and Fog 33 0.6 32 undefined 96 96 N N/A 30.23 1024 5 8.0467 0.02 0.508
1:40 am 01:40 Cloudy with Mist and Fog 33 0.6 32 undefined 96 96 S 3 6 30.24 1024 6 9.65604 N/A
1:53 am 01:53 Cloudy with Mist and Fog 33 0.6 32 undefined 96 96 N N/A 30.23 1024 5 8.0467 N/A
2:40 am 02:40 Cloudy with Mist and Fog 33 0.6 31 -0.6 92 92 E 6 9 30.21 1023 5 8.0467 N/A
2:53 am 02:53 Cloudy with Mist and Fog 33 0.6 31 -0.6 92 92 N N/A 30.2 1023 5 8.0467 N/A
3:27 am 03:27 Cloudy with Mist and Fog 33 0.6 31 -0.6 92 92 S 3 6 30.21 1023 5 8.0467 N/A
3:53 am 03:53 Cloudy with Mist and Fog 33 0.6 32 undefined 96 96 ENE 6 9 30.17 1022 5 8.0467 N/A
4:23 am 04:23 Cloudy with Mist and Fog 33 0.6 31 -0.6 92 92 E 7 11 30.18 1022 6 9.65604 N/A
4:53 am 04:53 Cloudy 33 0.6 31 -0.6 92 92 E 3 6 30.17 1022 7 11.26538 N/A
5:53 am 05:53 Cloudy 34 1.1 30 -1.1 85 85 N N/A 30.14 1021 9 14.48406 N/A
6:53 am 06:53 Cloudy with Light Rain 34 1.1 29 -1.7 82 82 ESE 9 15 30.1 1019 10 16.0934 N/A
7:53 am 07:53 Cloudy 35 1.7 31 -0.6 85 85 E 9 15 30.04 1017 10 16.0934 N/A
8:53 am 08:53 Cloudy 36 2.2 32 undefined 86 86 E 3 6 30.02 1017 10 16.0934 N/A
9:53 am 09:53 Cloudy with Light Rain 38 3.3 33 0.6 83 83 E 8 13 29.98 1015 10 16.0934 N/A
10:53 am 10:53 Mostly Cloudy 40 4.4 30 -1.1 68 68 E 8 13 29.94 1014 10 16.0934 0.01 0.254
11:53 am 11:53 Cloudy 44 6.7 23 -5 43 43 SSE 7 11 29.9 1013 10 16.0934 N/A
12:53 pm 12:53 Cloudy with Light Rain 42 5.6 30 -1.1 62 62 VRB 7 11 29.82 1010 5 8.0467 0.01 0.254
1:53 pm 13:53 Cloudy with Light Rain 41 5 36 2.2 82 82 VRB 5 7 29.76 1008 4 6.43736 0.07 1.778
2:05 pm 14:05 Cloudy with Light Rain 41 5 37 2.8 86 86 SSE 5 7 29.77 1008 4 6.43736 0.01 0.254
2:53 pm 14:53 Cloudy with Light Rain 42 5.6 40 4.4 92 92 N N/A 29.72 1006 6 9.65604 0.03 0.762
3:14 pm 15:14 Cloudy with Light Rain 43 6.1 41 5 93 93 VRB 3 6 29.74 1007 2.5 4.02335 0.01 0.254
3:28 pm 15:28 Cloudy with Light Rain 43 6.1 41 5 93 93 VRB 6 9 29.71 1006 3 4.82802 0.01 0.254
3:39 pm 15:39 Cloudy with Light Rain 43 6.1 41 5 93 93 S 6 9 29.71 1006 2 3.21868 0.02 0.508
3:53 pm 15:53 Cloudy with Light Rain 43 6.1 41 5 93 93 S 7 11 29.68 1005 1.75 2.816345 0.02 0.508
4:00 pm 16:00 Cloudy with Light Rain 43 6.1 41 5 93 93 S 7 11 29.71 1006 3 4.82802 N/A
4:27 pm 16:27 Cloudy with Mist and Fog 43 6.1 41 5 93 93 SSE 3 6 29.68 1005 2 3.21868 N/A
4:36 pm 16:36 Cloudy with Light Rain 42 5.6 41 5 96 96 VRB 5 7 29.68 1005 1.75 2.816345 0.01 0.254
4:53 pm 16:53 Cloudy with Light Rain 42 5.6 41 5 96 96 VRB 3 6 29.64 1004 1.75 2.816345 0.01 0.254
5:10 pm 17:10 Cloudy with Light Rain 42 5.6 41 5 96 96 N N/A 29.65 1004 2 3.21868 0.01 0.254
5:18 pm 17:18 Cloudy with Light Rain 42 5.6 41 5 96 96 S 5 7 29.65 1004 1.75 2.816345 0.01 0.254
5:25 pm 17:25 Cloudy with Light Rain 42 5.6 42 5.6 100 100 N N/A 29.65 1004 1.5 2.41401 0.02 0.508
5:51 pm 17:51 Cloudy with Light Rain 43 6 43 6 100 100 SE 3 6 29.62 1003 2 3.21868 0.06 1.524
5:53 pm 17:53 Cloudy with Light Rain 43 6.1 42 5.6 97 97 N N/A 29.61 1003 2.5 4.02335 0.06 1.524
6:02 pm 18:02 Cloudy with Light Rain 43 6.1 42 5.6 97 97 VRB 3 6 29.62 1003 4 6.43736 0.01 0.254
6:53 pm 18:53 Cloudy with Light Rain 44 6.7 43 6.1 96 96 N N/A 29.59 1002 5 8.0467 0.05 1.27
7:53 pm 19:53 Cloudy with Light Rain 42 5.6 42 5.6 100 100 N N/A 29.57 1001 2.5 4.02335 0.04 1.016
8:08 pm 20:08 Cloudy with Light Rain 43 6.1 42 5.6 97 97 N N/A 29.59 1002 3 4.82802 0.01 0.254
8:53 pm 20:53 Cloudy with Mist and Fog 45 7.2 44 6.7 97 97 VRB 3 6 29.55 1001 6 9.65604 0.01 0.254
9:34 pm 21:34 Cloudy with Mist and Fog 45 7.2 44 6.7 97 97 WSW 7 11 29.56 1001 6 9.65604 0.01 0.254
9:53 pm 21:53 Cloudy with Mist and Fog 45 7.2 44 6.7 97 97 WSW 6 9 29.54 1000 6 9.65604 0.01 0.254
10:17 pm 22:17 Cloudy 45 7.2 43 6.1 93 93 W 14 22 29.56 1001 10 16.0934 N/A
10:53 pm 22:53 Cloudy with Light Rain 44 6.7 42 5.6 93 93 WNW 13 20 29.55 1001 8 12.87472 N/A
11:53 pm 23:53 Cloudy 41 5 38 3.3 89 89 W 13 20 29.57 1001 10 16.0934 N/A

Powered by AerisWeather